Location: Saint Claire
(35.2187°N, 90.1187°W)
Time: 06:37:52
(UTC+00:00)

Daily predictions for brighter satellites

Satellite Brightness Start Highest point End
(mag) Time Altitude Azimuth Time Altitude Azimuth Time Altitude Azimuth
CBERS-1 4.0 12:02:45 10° N 12:07:51 73° WNW 12:12:55 10° SSW
Cosmos 1025 Rocket 3.3 12:04:01 10° SSW 12:08:11 46° W 12:12:24 10° N
CORIOLIS 4.2 23:13:51 10° SSE 23:19:09 64° ENE 23:24:26 10° N
CBERS-1 4.4 23:14:23 10° S 23:19:27 70° WSW 23:24:34 10° NNW
Cosmos 407 Rocket 3.6 23:18:28 10° S 23:23:33 55° ESE 23:28:35 10° NNE
ISS -2.8 23:21:04 10° WSW 23:24:14 42° NW 23:27:27 10° NE
CZ-2D R/B 3.1 23:22:15 10° SE 23:25:13 39° ENE 23:28:11 10° N
SL-12 R/B(2) 4.2 23:18:12 10° SSW 23:25:43 80° ESE 23:34:44 10° NNE
Cosmos 1943 Rocket 2.3 23:22:27 10° S 23:27:56 56° ESE 23:33:24 10° NNE
Cosmos 2278 Rocket 2.4 23:22:51 10° S 23:28:19 53° ESE 23:33:48 10° NNE
OAO 3 Rocket 3.3 23:24:03 10° WSW 23:28:40 64° SSE 23:33:14 10° E
Cosmos 2082 Rocket 3.8 23:27:39 10° NNE 23:30:16 13° NE 23:32:52 10° E
Aureole 3 Rocket 3.3 23:27:45 10° SSE 23:30:27 25° E 23:33:02 10° NE
IRS-1C 4.1 23:25:25 10° SSE 23:30:38 62° ENE 23:35:54 10° N
Cosmos 1975 Rocket 3.2 23:30:05 10° N 23:34:20 52° E 23:38:35 10° SSE
ATLAS 5 CENTAUR R/B 2.3 23:32:04 10° NNW 23:36:36 44° ENE 23:42:06 10° SE
MOS 1 Rocket 3.6 23:35:13 10° SE 23:39:05 35° ENE 23:43:04 10° N
SAR-Lupe-1 3.9 23:35:51 10° SSE 23:39:23 75° ENE 23:42:56 10° N
COSMO-SKYMED 1 3.4 23:37:51 10° NE 23:41:23 27° E 23:44:53 10° SSE
USA 215 3.3 23:35:16 10° ESE 23:41:41 64° NE 23:48:09 10° NW
SKYMED 2 3.8 23:41:34 10° NNE 23:45:46 47° E 23:49:57 10° S
Helios 1A Rocket 3.3 23:43:14 10° NE 23:46:14 29° E 23:49:12 10° SSE
SAR-Lupe-4 4.2 23:48:02 10° S 23:51:34 59° W 23:55:06 10° NNW
RESURS DK-1 3.3 23:52:28 10° N 23:55:45 24° ENE 23:57:09 20° E
